EUTELSAT 5 WEST B (EGN*)

Last updated on Sun Apr 12 2026 00:03:34 GMT+0000 (Coordinated Universal Time)

1 44624U 19067A 26101.37710977 -.00000041 00000+0 00000+0 0 9998 2 44624 0.0692 21.4498 0003409 8.5139 300.3942 1.00271784 23768
UTC large
Height (km)
Speed (km/s)
/
Latitude / Longitude
Inclination (degrees)
Orbital Period (minutes)
Azimuth
Elevation
Range (km)
Doppler Factor

Next 0 passes for location: London (51.5072 / 0.1276)

Sorry there are no passes over London.
EUTELSAT 5 WEST B (EGN*)